sat.trackr.live / text

‹ back to catalog

STARLINK-6188

NORAD 56376 · 2023-061C

PAYLOAD ACTIVE UNKNOWN

§ Identity

Operator
Country
US
Launch date
2023-05-04
Launch site
AFETR
Launch vehicle
Mass (kg)
RCS (m²)

Purposes: comms

External: N2YO · Heavens-Above · Gunter

§ Orbital elements

Epoch: 2026-05-24T09:48:37.179360Z

Period
94.27 min
Inclination
43.0041°
Eccentricity
0.0001123
Mean motion
15.27596660 rev/d
Perigee alt
482.2 km
Apogee alt
483.8 km
Semi-major
6,861.1 km
B*
-1.6451e-4
RAAN
129.9591°
Arg perigee
276.5502°
Mean anomaly
83.5222°
Rev number
16,833

§ Raw data

STARLINK-61881 56376U 23061C   26144.40876365 -.00004788  00000+0 -16451-3 0  99932 56376  43.0041 129.9591 0001123 276.5502  83.5222 15.27596660168331

JSON: /api/v1/satellites/56376 · /tle

For live sub-satellite position, see the globe view (requires WebGL).

§ Visibility from observer

Set your observer location to see the next 7 days of passes ≥ 10°. The values pass through the URL so the page stays shareable.

No JS? Fill the form by hand. The geolocation button needs JavaScript.